Time,TemperatureF,DewpointF,PressureIn,WindDirection,WindDirectionDegrees,WindSpeedMPH,WindSpeedGustMPH,Humidity,HourlyPrecipIn,Conditions,Clouds,dailyrainin,SoftwareType,DateUTC
2015-03-01 00:01:00,46.4,43.6,29.93,NNW,335,0.0,0.0,90,0.00,CLR,,0.01,WeatherDisplay:10.37,2015-03-01 08:01:00,
2015-03-01 00:06:00,46.3,43.5,29.93,NNW,335,0.0,0.0,90,0.00,RA,,0.00,WeatherDisplay:10.37,2015-03-01 08:06:00,
2015-03-01 00:11:00,46.3,43.8,29.93,NNW,335,0.0,0.0,91,0.00,RA,,0.00,WeatherDisplay:10.37,2015-03-01 08:11:00,
2015-03-01 00:16:00,46.4,43.9,29.93,NNW,335,0.0,0.0,91,0.00,CLR,,0.00,WeatherDisplay:10.37,2015-03-01 08:16:00,
2015-03-01 00:21:00,46.4,43.9,29.93,NNW,335,0.0,0.0,91,0.00,CLR,,0.00,WeatherDisplay:10.37,2015-03-01 08:21:00,
2015-03-01 00:26:00,46.5,44.0,29.93,NNW,335,0.0,0.0,91,0.00,CLR,,0.00,WeatherDisplay:10.37,2015-03-01 08:26:00,
2015-03-01 00:31:00,46.5,44.0,29.93,NNW,335,0.0,0.0,91,0.00,CLR,,0.00,WeatherDisplay:10.37,2015-03-01 08:31:00,
2015-03-01 00:36:00,46.5,44.0,29.93,NNW,335,0.0,0.0,91,0.00,CLR,,0.00,WeatherDisplay:10.37,2015-03-01 08:36:00,
2015-03-01 00:41:00,46.4,43.9,29.93,NNW,335,0.0,0.0,91,0.00,CLR,,0.00,WeatherDisplay:10.37,2015-03-01 08:41:00,
2015-03-01 00:46:00,46.3,43.8,29.93,NNW,335,0.0,0.0,91,0.00,CLR,,0.00,WeatherDisplay:10.37,2015-03-01 08:46:00,
2015-03-01 00:51:00,46.3,43.8,29.93,NNW,335,0.0,0.0,91,0.00,CLR,,0.00,WeatherDisplay:10.37,2015-03-01 08:51:00,
2015-03-01 00:56:00,46.3,43.8,29.93,NNW,335,0.0,0.0,91,0.00,CLR,,0.00,WeatherDisplay:10.37,2015-03-01 08:56:00,
2015-03-01 01:01:00,46.3,43.8,29.93,NNW,335,0.0,0.0,91,0.00,CLR,,0.00,WeatherDisplay:10.37,2015-03-01 09:01:00,
2015-03-01 01:06:00,46.3,43.8,29.93,NNW,335,0.0,0.0,91,0.00,CLR,,0.00,WeatherDisplay:10.37,2015-03-01 09:06:00,
2015-03-01 01:11:00,46.4,43.9,29.94,NNW,335,0.0,0.0,91,0.00,CLR,,0.00,WeatherDisplay:10.37,2015-03-01 09:11:00,
2015-03-01 01:16:00,46.4,43.9,29.94,NNW,335,0.0,0.0,91,0.00,CLR,,0.00,WeatherDisplay:10.37,2015-03-01 09:16:00,
2015-03-01 01:21:00,46.3,43.8,29.94,NNW,335,0.0,0.0,91,0.00,CLR,,0.00,WeatherDisplay:10.37,2015-03-01 09:21:00,
2015-03-01 01:26:00,46.3,43.8,29.94,NNW,335,0.0,0.0,91,0.00,CLR,,0.00,WeatherDisplay:10.37,2015-03-01 09:26:00,
2015-03-01 01:31:00,46.3,43.8,29.94,NNW,335,0.0,0.0,91,0.00,CLR,,0.00,WeatherDisplay:10.37,2015-03-01 09:31:00,
2015-03-01 01:36:00,46.3,43.8,29.94,NNW,335,0.0,0.0,91,0.00,CLR,,0.00,WeatherDisplay:10.37,2015-03-01 09:36:00,
2015-03-01 01:41:00,46.4,43.6,29.94,NNW,335,0.0,0.0,90,0.00,CLR,,0.00,WeatherDisplay:10.37,2015-03-01 09:41:00,
2015-03-01 01:46:00,46.3,43.5,29.94,NNW,335,0.0,0.0,90,0.00,CLR,,0.00,WeatherDisplay:10.37,2015-03-01 09:46:00,
2015-03-01 01:51:00,46.2,43.4,29.94,NNW,335,0.0,0.0,90,0.00,CLR,,0.00,WeatherDisplay:10.37,2015-03-01 09:51:00,
2015-03-01 01:56:00,46.1,43.6,29.94,NNW,335,0.0,0.0,91,0.00,CLR,,0.00,WeatherDisplay:10.37,2015-03-01 09:56:00,
2015-03-01 02:01:00,46.1,43.6,29.94,NNW,335,0.0,0.0,91,0.00,CLR,,0.00,WeatherDisplay:10.37,2015-03-01 10:01:00,
2015-03-01 02:06:00,46.3,43.8,29.94,NNW,335,0.0,0.0,91,0.00,CLR,,0.00,WeatherDisplay:10.37,2015-03-01 10:06:00,
2015-03-01 02:11:00,46.4,44.2,29.94,NNW,335,0.0,0.0,92,0.00,CLR,,0.00,WeatherDisplay:10.37,2015-03-01 10:11:00,
2015-03-01 02:16:00,46.5,44.3,29.94,NNW,335,0.0,0.0,92,0.00,CLR,,0.00,WeatherDisplay:10.37,2015-03-01 10:16:00,
2015-03-01 02:21:00,46.7,44.5,29.94,NNW,335,0.0,0.0,92,0.00,CLR,,0.00,WeatherDisplay:10.37,2015-03-01 10:21:00,
2015-03-01 02:26:00,46.9,44.7,29.94,NNW,335,0.0,0.0,92,0.00,CLR,,0.00,WeatherDisplay:10.37,2015-03-01 10:26:00,
2015-03-01 02:31:00,47.1,44.6,29.94,NNW,335,0.0,0.0,91,0.00,CLR,,0.00,WeatherDisplay:10.37,2015-03-01 10:31:00,
2015-03-01 02:36:00,47.3,44.8,29.94,NNW,335,0.0,0.0,91,0.00,CLR,,0.00,WeatherDisplay:10.37,2015-03-01 10:36:00,
2015-03-01 02:41:00,47.3,44.8,29.94,NNW,335,0.0,0.0,91,0.00,CLR,,0.00,WeatherDisplay:10.37,2015-03-01 10:41:00,
2015-03-01 02:46:00,47.4,44.6,29.94,NNW,335,0.0,0.0,90,0.00,CLR,,0.00,WeatherDisplay:10.37,2015-03-01 10:46:00,
2015-03-01 02:51:00,47.4,44.6,29.94,NNW,335,0.0,0.0,90,0.00,CLR,,0.00,WeatherDisplay:10.37,2015-03-01 10:51:00,
2015-03-01 02:56:00,47.4,44.3,29.94,NNW,335,0.0,0.0,89,0.00,CLR,,0.00,WeatherDisplay:10.37,2015-03-01 10:56:00,
2015-03-01 03:01:00,47.4,44.3,29.94,NNW,335,0.0,0.0,89,0.00,CLR,,0.00,WeatherDisplay:10.37,2015-03-01 11:01:00,
2015-03-01 03:06:00,47.6,44.2,29.94,NNW,335,0.0,0.0,88,0.00,CLR,,0.00,WeatherDisplay:10.37,2015-03-01 11:06:00,
2015-03-01 03:11:00,47.8,44.4,29.94,NNW,335,0.0,0.0,88,0.00,CLR,,0.00,WeatherDisplay:10.37,2015-03-01 11:11:00,
2015-03-01 03:16:00,47.9,44.2,29.94,NNW,335,1.2,0.0,87,0.00,CLR,,0.00,WeatherDisplay:10.37,2015-03-01 11:16:00,
2015-03-01 03:21:00,47.9,44.2,29.94,NNW,335,0.0,0.0,87,0.00,CLR,,0.00,WeatherDisplay:10.37,2015-03-01 11:21:00,
2015-03-01 03:26:00,48.0,44.0,29.94,NNW,335,0.0,0.0,86,0.00,CLR,,0.00,WeatherDisplay:10.37,2015-03-01 11:26:00,
2015-03-01 03:31:00,48.0,44.0,29.94,NNW,335,0.0,0.0,86,0.00,CLR,,0.00,WeatherDisplay:10.37,2015-03-01 11:31:00,
2015-03-01 03:36:00,47.9,43.9,29.94,NNW,335,0.0,0.0,86,0.00,CLR,,0.00,WeatherDisplay:10.37,2015-03-01 11:36:00,
2015-03-01 03:41:00,47.8,43.8,29.94,NNW,335,0.0,0.0,86,0.00,CLR,,0.00,WeatherDisplay:10.37,2015-03-01 11:41:00,
2015-03-01 03:46:00,47.7,43.7,29.94,NNW,335,0.0,0.0,86,0.00,CLR,,0.00,WeatherDisplay:10.37,2015-03-01 11:46:00,
2015-03-01 03:51:00,47.6,43.3,29.94,NNW,335,0.0,0.0,85,0.00,CLR,,0.00,WeatherDisplay:10.37,2015-03-01 11:51:00,
2015-03-01 03:56:00,47.6,43.3,29.94,NNW,335,0.0,0.0,85,0.00,CLR,,0.00,WeatherDisplay:10.37,2015-03-01 11:56:00,
2015-03-01 04:01:00,47.6,43.3,29.94,NNW,335,0.0,0.0,85,0.00,CLR,,0.00,WeatherDisplay:10.37,2015-03-01 12:01:00,
2015-03-01 04:06:00,47.5,42.9,29.94,NNW,335,0.0,0.0,84,0.00,CLR,,0.00,WeatherDisplay:10.37,2015-03-01 12:06:00,
2015-03-01 04:11:00,47.4,42.8,29.94,NNW,335,0.0,0.0,84,0.00,CLR,,0.00,WeatherDisplay:10.37,2015-03-01 12:11:00,
2015-03-01 04:16:00,47.4,42.5,29.94,NNW,335,0.0,0.0,83,0.00,CLR,,0.00,WeatherDisplay:10.37,2015-03-01 12:16:00,
2015-03-01 04:21:00,47.3,42.4,29.94,NNW,335,0.0,0.0,83,0.00,CLR,,0.00,WeatherDisplay:10.37,2015-03-01 12:21:00,
2015-03-01 04:26:00,47.3,42.4,29.94,NNW,335,0.0,0.0,83,0.00,CLR,,0.00,WeatherDisplay:10.37,2015-03-01 12:26:00,
2015-03-01 04:31:00,47.3,42.1,29.94,NNW,335,0.0,0.0,82,0.00,CLR,,0.00,WeatherDisplay:10.37,2015-03-01 12:31:00,
2015-03-01 04:36:00,47.3,41.8,29.94,NNW,335,0.0,0.0,81,0.00,CLR,,0.00,WeatherDisplay:10.37,2015-03-01 12:36:00,
2015-03-01 04:41:00,47.3,42.1,29.94,NNW,335,1.2,0.0,82,0.00,CLR,,0.00,WeatherDisplay:10.37,2015-03-01 12:41:00,
2015-03-01 04:46:00,47.0,41.8,29.94,NNW,335,0.0,0.0,82,0.00,CLR,,0.00,WeatherDisplay:10.37,2015-03-01 12:46:00,
2015-03-01 04:51:00,46.8,41.6,29.94,NNW,335,0.0,0.0,82,0.00,CLR,,0.00,WeatherDisplay:10.37,2015-03-01 12:51:00,
2015-03-01 04:56:00,46.6,41.1,29.95,NNW,335,0.0,0.0,81,0.00,CLR,,0.00,WeatherDisplay:10.37,2015-03-01 12:56:00,
2015-03-01 05:01:00,46.5,40.3,29.95,NNW,335,0.0,0.1,79,0.00,CLR,,0.00,WeatherDisplay:10.37,2015-03-01 13:01:00,
2015-03-01 05:06:00,46.6,39.1,29.95,SSW,212,0.0,0.0,75,0.00,CLR,,0.00,WeatherDisplay:10.37,2015-03-01 13:06:00,
2015-03-01 05:11:00,46.8,38.9,29.95,SSW,212,0.0,0.0,74,0.00,CLR,,0.00,WeatherDisplay:10.37,2015-03-01 13:11:00,
2015-03-01 05:16:00,46.9,39.0,29.95,SSW,212,1.2,1.2,74,0.00,CLR,,0.00,WeatherDisplay:10.37,2015-03-01 13:16:00,
2015-03-01 05:21:00,46.9,38.3,29.95,WNW,295,2.3,2.3,72,0.00,CLR,,0.00,WeatherDisplay:10.37,2015-03-01 13:21:00,
2015-03-01 05:26:00,47.0,38.1,29.95,WNW,295,0.0,0.0,71,0.00,CLR,,0.00,WeatherDisplay:10.37,2015-03-01 13:26:00,
2015-03-01 05:31:00,47.0,37.7,29.95,WNW,294,0.0,0.0,70,0.00,CLR,,0.00,WeatherDisplay:10.37,2015-03-01 13:31:00,
2015-03-01 05:36:00,46.9,38.0,29.95,WNW,294,0.0,0.0,71,0.00,CLR,,0.00,WeatherDisplay:10.37,2015-03-01 13:36:00,
2015-03-01 05:41:00,46.8,37.5,29.95,NW,325,0.0,0.0,70,0.00,CLR,,0.00,WeatherDisplay:10.37,2015-03-01 13:41:00,
2015-03-01 05:46:00,46.8,38.2,29.95,NW,325,0.0,0.0,72,0.00,CLR,,0.00,WeatherDisplay:10.37,2015-03-01 13:46:00,
2015-03-01 05:51:00,46.7,37.8,29.95,NW,325,0.0,0.0,71,0.00,CLR,,0.00,WeatherDisplay:10.37,2015-03-01 13:51:00,
2015-03-01 05:56:00,46.7,37.4,29.95,NW,325,0.0,0.0,70,0.00,CLR,,0.00,WeatherDisplay:10.37,2015-03-01 13:56:00,
2015-03-01 06:01:00,46.7,37.1,29.96,NNW,345,3.5,3.5,69,0.00,CLR,,0.00,WeatherDisplay:10.37,2015-03-01 14:01:00,
2015-03-01 06:06:00,47.2,36.8,29.96,NNW,341,2.3,0.0,67,0.00,CLR,,0.00,WeatherDisplay:10.37,2015-03-01 14:06:00,
2015-03-01 06:11:00,47.4,36.6,29.96,NNW,341,1.2,1.2,66,0.00,CLR,,0.00,WeatherDisplay:10.37,2015-03-01 14:11:00,
2015-03-01 06:16:00,47.5,36.7,29.96,North,354,0.0,0.0,66,0.00,CLR,,0.00,WeatherDisplay:10.37,2015-03-01 14:16:00,
2015-03-01 06:21:00,47.4,36.2,29.97,North,354,0.0,0.0,65,0.00,CLR,,0.00,WeatherDisplay:10.37,2015-03-01 14:21:00,
2015-03-01 06:26:00,47.4,36.2,29.97,North,351,1.2,1.2,65,0.00,CLR,,0.00,WeatherDisplay:10.37,2015-03-01 14:26:00,
2015-03-01 06:31:00,47.5,36.3,29.97,East,89,2.3,2.3,65,0.00,CLR,,0.00,WeatherDisplay:10.37,2015-03-01 14:31:00,
2015-03-01 06:36:00,47.7,36.5,29.97,NNW,337,1.2,0.0,65,0.00,CLR,,0.00,WeatherDisplay:10.37,2015-03-01 14:36:00,
2015-03-01 06:41:00,47.9,36.3,29.97,NW,315,2.0,2.0,64,0.00,CLR,,0.00,WeatherDisplay:10.37,2015-03-01 14:41:00,
2015-03-01 06:46:00,48.2,36.6,29.97,NNW,333,2.3,2.3,64,0.00,CLR,,0.00,WeatherDisplay:10.37,2015-03-01 14:46:00,
2015-03-01 06:51:00,48.2,35.8,29.97,NNW,333,3.5,3.5,62,0.00,CLR,,0.00,WeatherDisplay:10.37,2015-03-01 14:51:00,
2015-03-01 06:56:00,48.3,35.5,29.97,NW,322,3.5,3.5,61,0.00,CLR,,0.00,WeatherDisplay:10.37,2015-03-01 14:56:00,
2015-03-01 07:01:00,48.4,36.0,29.97,NW,322,0.0,0.0,62,0.00,CLR,,0.00,WeatherDisplay:10.37,2015-03-01 15:01:00,
2015-03-01 07:06:00,48.4,36.0,29.98,North,358,1.2,1.2,62,0.00,CLR,,0.00,WeatherDisplay:10.37,2015-03-01 15:06:00,
2015-03-01 07:11:00,48.3,35.5,29.98,NNE,29,2.3,2.3,61,0.00,CLR,,0.00,WeatherDisplay:10.37,2015-03-01 15:11:00,
2015-03-01 07:16:00,48.3,35.9,29.98,NNE,29,0.0,0.0,62,0.00,CLR,,0.00,WeatherDisplay:10.37,2015-03-01 15:16:00,
2015-03-01 07:21:00,48.2,35.8,29.98,NNE,29,0.0,0.0,62,0.00,CLR,,0.00,WeatherDisplay:10.37,2015-03-01 15:21:00,
2015-03-01 07:26:00,48.1,36.1,29.98,North,5,1.2,1.2,63,0.00,CLR,,0.00,WeatherDisplay:10.37,2015-03-01 15:26:00,
2015-03-01 07:31:00,48.0,36.0,29.98,North,5,0.0,0.1,63,0.00,CLR,,0.00,WeatherDisplay:10.37,2015-03-01 15:31:00,
2015-03-01 07:36:00,47.9,36.3,29.98,North,5,2.0,2.0,64,0.00,CLR,,0.00,WeatherDisplay:10.37,2015-03-01 15:36:00,
2015-03-01 07:41:00,47.9,35.9,29.99,North,4,1.2,0.0,63,0.00,CLR,,0.00,WeatherDisplay:10.37,2015-03-01 15:41:00,
2015-03-01 07:46:00,47.8,35.8,29.98,East,79,3.5,3.5,63,0.00,CLR,,0.00,WeatherDisplay:10.37,2015-03-01 15:46:00,
2015-03-01 07:51:00,47.9,36.3,29.99,East,79,0.0,0.0,64,0.00,CLR,,0.00,WeatherDisplay:10.37,2015-03-01 15:51:00,
2015-03-01 07:56:00,47.9,36.3,29.99,East,88,0.0,0.0,64,0.00,CLR,,0.00,WeatherDisplay:10.37,2015-03-01 15:56:00,
2015-03-01 08:01:00,47.9,36.3,29.99,East,88,1.2,1.2,64,0.00,CLR,,0.00,WeatherDisplay:10.37,2015-03-01 16:01:00,
2015-03-01 08:06:00,47.9,36.3,29.99,East,88,0.0,0.0,64,0.00,CLR,,0.00,WeatherDisplay:10.37,2015-03-01 16:06:00,
2015-03-01 08:11:00,48.0,35.6,29.99,East,87,2.3,2.3,62,0.00,CLR,,0.00,WeatherDisplay:10.37,2015-03-01 16:11:00,
2015-03-01 08:16:00,48.2,35.8,29.99,ENE,72,0.0,0.0,62,0.00,CLR,,0.00,WeatherDisplay:10.37,2015-03-01 16:16:00,
2015-03-01 08:21:00,48.4,36.4,29.99,ENE,72,0.0,0.0,63,0.00,CLR,,0.00,WeatherDisplay:10.37,2015-03-01 16:21:00,
2015-03-01 08:26:00,48.6,36.6,29.99,ENE,68,0.0,0.0,63,0.00,CLR,,0.00,WeatherDisplay:10.37,2015-03-01 16:26:00,
2015-03-01 08:31:00,48.7,36.7,30.00,NW,308,0.0,0.0,63,0.00,CLR,,0.00,WeatherDisplay:10.37,2015-03-01 16:31:00,
2015-03-01 08:36:00,48.9,36.4,29.99,NW,308,1.0,1.0,62,0.00,CLR,,0.00,WeatherDisplay:10.37,2015-03-01 16:36:00,
2015-03-01 08:41:00,49.0,36.5,30.00,NW,308,2.3,2.3,62,0.00,CLR,,0.00,WeatherDisplay:10.37,2015-03-01 16:41:00,
2015-03-01 08:46:00,49.1,36.6,30.00,NW,308,0.0,0.2,62,0.00,CLR,,0.00,WeatherDisplay:10.37,2015-03-01 16:46:00,
2015-03-01 08:51:00,49.3,36.8,30.00,NNW,328,0.0,0.0,62,0.00,CLR,,0.00,WeatherDisplay:10.37,2015-03-01 16:51:00,
2015-03-01 08:56:00,49.6,36.7,30.00,NE,46,2.3,2.3,61,0.00,CLR,,0.00,WeatherDisplay:10.37,2015-03-01 16:56:00,
2015-03-01 09:01:00,49.9,37.0,30.00,NE,46,0.0,0.0,61,0.00,CLR,,0.00,WeatherDisplay:10.37,2015-03-01 17:01:00,
2015-03-01 09:06:00,50.2,37.7,30.00,NE,47,0.0,0.0,62,0.00,CLR,,0.00,WeatherDisplay:10.37,2015-03-01 17:06:00,
2015-03-01 09:11:00,50.5,37.5,30.00,NE,45,1.2,1.2,61,0.00,CLR,,0.00,WeatherDisplay:10.37,2015-03-01 17:11:00,
2015-03-01 09:16:00,50.9,37.9,30.00,South,180,1.2,0.0,61,0.00,CLR,,0.00,WeatherDisplay:10.37,2015-03-01 17:16:00,
2015-03-01 09:21:00,51.3,37.9,30.00,SW,222,2.3,2.3,60,0.00,CLR,,0.00,WeatherDisplay:10.37,2015-03-01 17:21:00,
2015-03-01 09:26:00,51.6,37.7,30.00,SW,222,0.0,0.0,59,0.00,CLR,,0.00,WeatherDisplay:10.37,2015-03-01 17:26:00,
2015-03-01 09:31:00,51.8,37.9,30.00,East,88,1.2,0.0,59,0.00,CLR,,0.00,WeatherDisplay:10.37,2015-03-01 17:31:00,
2015-03-01 09:36:00,52.1,38.2,30.00,ENE,57,1.0,0.0,59,0.00,CLR,,0.00,WeatherDisplay:10.37,2015-03-01 17:36:00,
2015-03-01 09:41:00,52.4,38.0,30.00,NNE,20,0.0,0.0,58,0.00,CLR,,0.00,WeatherDisplay:10.37,2015-03-01 17:41:00,
2015-03-01 09:46:00,53.0,37.7,30.00,North,10,1.2,1.2,56,0.00,CLR,,0.00,WeatherDisplay:10.37,2015-03-01 17:46:00,
2015-03-01 09:51:00,53.6,38.7,30.00,North,10,1.2,1.2,57,0.00,CLR,,0.00,WeatherDisplay:10.37,2015-03-01 17:51:00,
2015-03-01 09:56:00,54.2,37.9,30.00,North,10,0.0,0.0,54,0.00,CLR,,0.00,WeatherDisplay:10.37,2015-03-01 17:56:00,
2015-03-01 10:01:00,54.9,38.6,30.00,North,10,1.2,0.0,54,0.00,CLR,,0.00,WeatherDisplay:10.37,2015-03-01 18:01:00,
2015-03-01 10:06:00,55.4,38.5,30.00,NNW,345,0.0,0.0,53,0.00,CLR,,0.00,WeatherDisplay:10.37,2015-03-01 18:06:00,
2015-03-01 10:11:00,56.0,38.1,30.00,East,97,2.3,2.3,51,0.00,CLR,,0.00,WeatherDisplay:10.37,2015-03-01 18:11:00,
2015-03-01 10:16:00,56.6,38.2,30.00,ESE,104,1.2,1.2,50,0.00,CLR,,0.00,WeatherDisplay:10.37,2015-03-01 18:16:00,
2015-03-01 10:21:00,56.7,38.8,30.00,North,349,0.0,0.0,51,0.00,CLR,,0.00,WeatherDisplay:10.37,2015-03-01 18:21:00,
2015-03-01 10:26:00,57.1,39.6,29.99,North,349,1.2,0.0,52,0.00,CLR,,0.00,WeatherDisplay:10.37,2015-03-01 18:26:00,
2015-03-01 10:31:00,57.5,39.5,29.99,NNW,348,2.3,2.3,51,0.00,CLR,,0.00,WeatherDisplay:10.37,2015-03-01 18:31:00,
2015-03-01 10:36:00,58.0,41.0,29.99,North,349,2.3,2.3,53,0.00,CLR,,0.00,WeatherDisplay:10.37,2015-03-01 18:36:00,
2015-03-01 10:41:00,58.4,39.8,29.99,NNE,31,1.2,0.0,50,0.00,CLR,,0.00,WeatherDisplay:10.37,2015-03-01 18:41:00,
2015-03-01 10:46:00,59.0,39.9,29.99,NNE,29,0.0,0.7,49,0.00,CLR,,0.00,WeatherDisplay:10.37,2015-03-01 18:46:00,
2015-03-01 10:51:00,59.0,39.3,29.99,NNE,16,2.3,2.3,48,0.00,CLR,,0.00,WeatherDisplay:10.37,2015-03-01 18:51:00,
2015-03-01 10:56:00,59.0,38.2,29.99,NNW,339,2.3,2.3,46,0.00,CLR,,0.00,WeatherDisplay:10.37,2015-03-01 18:56:00,
2015-03-01 11:01:00,59.0,38.8,29.99,NW,318,3.5,3.5,47,0.00,CLR,,0.00,WeatherDisplay:10.37,2015-03-01 19:01:00,
2015-03-01 11:06:00,59.1,37.8,29.99,NE,34,2.3,2.3,45,0.00,CLR,,0.00,WeatherDisplay:10.37,2015-03-01 19:06:00,
2015-03-01 11:11:00,59.6,38.2,29.99,NE,37,2.3,2.3,45,0.00,CLR,,0.00,WeatherDisplay:10.37,2015-03-01 19:11:00,
2015-03-01 11:16:00,59.9,40.7,29.99,NE,37,0.0,0.1,49,0.00,CLR,,0.00,WeatherDisplay:10.37,2015-03-01 19:16:00,
2015-03-01 11:21:00,60.2,40.4,29.99,SSE,160,1.2,1.2,48,0.00,CLR,,0.00,WeatherDisplay:10.37,2015-03-01 19:21:00,
2015-03-01 11:26:00,60.4,39.5,29.99,NW,308,1.2,1.2,46,0.00,CLR,,0.00,WeatherDisplay:10.37,2015-03-01 19:26:00,
2015-03-01 11:31:00,60.7,41.4,29.99,North,352,2.0,2.0,49,0.00,CLR,,0.00,WeatherDisplay:10.37,2015-03-01 19:31:00,
2015-03-01 11:36:00,60.8,40.4,29.98,North,351,2.3,2.3,47,0.00,CLR,,0.00,WeatherDisplay:10.37,2015-03-01 19:36:00,
2015-03-01 11:41:00,60.9,40.5,29.98,NW,310,2.3,2.3,47,0.00,CLR,,0.00,WeatherDisplay:10.37,2015-03-01 19:41:00,
2015-03-01 11:46:00,61.1,40.1,29.98,NNW,330,1.2,1.2,46,0.00,CLR,,0.00,WeatherDisplay:10.37,2015-03-01 19:46:00,
2015-03-01 11:51:00,61.3,40.9,29.98,North,3,1.2,1.2,47,0.00,CLR,,0.00,WeatherDisplay:10.37,2015-03-01 19:51:00,
2015-03-01 11:56:00,61.4,40.4,29.98,SSW,195,1.2,1.2,46,0.00,CLR,,0.00,WeatherDisplay:10.37,2015-03-01 19:56:00,
2015-03-01 12:01:00,61.5,39.9,29.98,NW,310,3.0,3.0,45,0.00,CLR,,0.00,WeatherDisplay:10.37,2015-03-01 20:01:00,
2015-03-01 12:06:00,61.0,39.5,29.98,ENE,70,5.8,5.8,45,0.00,CLR,,0.00,WeatherDisplay:10.37,2015-03-01 20:06:00,
2015-03-01 12:11:00,60.4,38.4,29.97,NW,322,4.6,4.6,44,0.00,CLR,,0.00,WeatherDisplay:10.37,2015-03-01 20:11:00,
2015-03-01 12:16:00,60.5,39.6,29.97,NW,308,3.5,3.5,46,0.00,CLR,,0.00,WeatherDisplay:10.37,2015-03-01 20:16:00,
2015-03-01 12:21:00,61.1,40.1,29.97,SSW,197,4.6,4.6,46,0.00,CLR,,0.00,WeatherDisplay:10.37,2015-03-01 20:21:00,
2015-03-01 12:26:00,61.0,38.3,29.97,NW,310,11.5,11.5,43,0.00,CLR,,0.00,WeatherDisplay:10.37,2015-03-01 20:26:00,
2015-03-01 12:31:00,61.1,40.7,29.97,NNW,342,4.6,4.6,47,0.00,CLR,,0.00,WeatherDisplay:10.37,2015-03-01 20:31:00,
2015-03-01 12:36:00,61.4,40.4,29.96,NNW,333,3.5,3.5,46,0.00,CLR,,0.00,WeatherDisplay:10.37,2015-03-01 20:36:00,
2015-03-01 12:41:00,62.0,41.0,29.96,NNE,29,1.0,1.0,46,0.00,CLR,,0.00,WeatherDisplay:10.37,2015-03-01 20:41:00,
2015-03-01 12:46:00,62.5,42.0,29.96,NW,313,1.2,1.2,47,0.00,CLR,,0.00,WeatherDisplay:10.37,2015-03-01 20:46:00,
2015-03-01 12:51:00,62.9,42.4,29.96,NE,56,2.3,2.3,47,0.00,CLR,,0.00,WeatherDisplay:10.37,2015-03-01 20:51:00,
2015-03-01 12:56:00,63.4,41.7,29.96,SSE,162,0.0,0.3,45,0.00,CLR,,0.00,WeatherDisplay:10.37,2015-03-01 20:56:00,
2015-03-01 13:01:00,63.6,41.9,29.95,NW,320,1.2,0.0,45,0.00,CLR,,0.00,WeatherDisplay:10.37,2015-03-01 21:01:00,
2015-03-01 13:06:00,63.7,41.4,29.95,NNW,332,1.2,1.2,44,0.00,CLR,,0.00,WeatherDisplay:10.37,2015-03-01 21:06:00,
2015-03-01 13:11:00,63.9,42.1,29.95,NNW,332,2.3,2.3,45,0.00,CLR,,0.00,WeatherDisplay:10.37,2015-03-01 21:11:00,
2015-03-01 13:16:00,64.0,41.0,29.95,NNW,329,1.2,1.2,43,0.00,CLR,,0.00,WeatherDisplay:10.37,2015-03-01 21:16:00,
2015-03-01 13:21:00,64.3,43.1,29.94,NW,326,1.2,0.0,46,0.00,CLR,,0.00,WeatherDisplay:10.37,2015-03-01 21:21:00,
2015-03-01 13:26:00,64.3,41.9,29.94,NW,326,2.3,2.3,44,0.00,CLR,,0.00,WeatherDisplay:10.37,2015-03-01 21:26:00,
2015-03-01 13:31:00,64.4,42.0,29.94,South,169,2.0,0.0,44,0.00,CLR,,0.00,WeatherDisplay:10.37,2015-03-01 21:31:00,
2015-03-01 13:36:00,64.8,41.8,29.94,North,350,2.3,2.3,43,0.00,CLR,,0.00,WeatherDisplay:10.37,2015-03-01 21:36:00,
2015-03-01 13:41:00,64.8,41.8,29.94,NNW,334,3.0,3.0,43,0.00,CLR,,0.00,WeatherDisplay:10.37,2015-03-01 21:41:00,
2015-03-01 13:46:00,64.1,41.1,29.93,NW,318,2.3,2.3,43,0.00,CLR,,0.00,WeatherDisplay:10.37,2015-03-01 21:46:00,
2015-03-01 13:51:00,64.0,40.4,29.93,NW,305,3.5,3.5,42,0.00,CLR,,0.00,WeatherDisplay:10.37,2015-03-01 21:51:00,
2015-03-01 13:56:00,63.8,39.6,29.93,NW,314,4.6,4.6,41,0.00,CLR,,0.00,WeatherDisplay:10.37,2015-03-01 21:56:00,
2015-03-01 14:01:00,63.9,42.1,29.93,NW,326,2.3,2.3,45,0.00,CLR,,0.00,WeatherDisplay:10.37,2015-03-01 22:01:00,
2015-03-01 14:06:00,64.3,42.5,29.93,NW,326,3.5,3.5,45,0.00,CLR,,0.00,WeatherDisplay:10.37,2015-03-01 22:06:00,
2015-03-01 14:11:00,64.5,40.9,29.93,NW,326,2.0,2.0,42,0.00,CLR,,0.00,WeatherDisplay:10.37,2015-03-01 22:11:00,
2015-03-01 14:16:00,64.5,40.3,29.93,NW,322,3.5,3.5,41,0.00,CLR,,0.00,WeatherDisplay:10.37,2015-03-01 22:16:00,
2015-03-01 14:21:00,64.6,42.2,29.92,East,83,0.0,0.0,44,0.00,CLR,,0.00,WeatherDisplay:10.37,2015-03-01 22:21:00,
2015-03-01 14:26:00,65.0,43.1,29.92,South,175,2.3,2.3,45,0.00,CLR,,0.00,WeatherDisplay:10.37,2015-03-01 22:26:00,
2015-03-01 14:31:00,65.1,40.8,29.92,NW,310,3.0,3.0,41,0.00,CLR,,0.00,WeatherDisplay:10.37,2015-03-01 22:31:00,
2015-03-01 14:36:00,64.9,41.2,29.93,North,4,3.5,3.5,42,0.00,CLR,,0.00,WeatherDisplay:10.37,2015-03-01 22:36:00,
2015-03-01 14:41:00,65.2,41.5,29.92,North,4,3.0,3.0,42,0.00,CLR,,0.00,WeatherDisplay:10.37,2015-03-01 22:41:00,
2015-03-01 14:46:00,65.3,43.4,29.92,North,358,3.5,3.5,45,0.00,CLR,,0.00,WeatherDisplay:10.37,2015-03-01 22:46:00,
2015-03-01 14:51:00,65.3,42.2,29.92,NNW,348,3.5,3.5,43,0.00,CLR,,0.00,WeatherDisplay:10.37,2015-03-01 22:51:00,
2015-03-01 14:56:00,65.4,43.5,29.92,SSE,161,2.3,2.3,45,0.00,CLR,,0.00,WeatherDisplay:10.37,2015-03-01 22:56:00,
2015-03-01 15:01:00,65.1,44.4,29.92,North,6,4.6,4.6,47,0.00,CLR,,0.00,WeatherDisplay:10.37,2015-03-01 23:01:00,
2015-03-01 15:06:00,64.5,44.4,29.92,East,80,2.3,2.3,48,0.00,CLR,,0.00,WeatherDisplay:10.37,2015-03-01 23:06:00,
2015-03-01 15:11:00,64.0,43.9,29.91,South,175,3.5,3.5,48,0.00,CLR,,0.00,WeatherDisplay:10.37,2015-03-01 23:11:00,
2015-03-01 15:16:00,63.7,44.2,29.92,West,276,4.6,4.6,49,0.00,CLR,,0.00,WeatherDisplay:10.37,2015-03-01 23:16:00,
2015-03-01 15:21:00,63.6,44.1,29.92,South,191,2.3,2.3,49,0.00,CLR,,0.00,WeatherDisplay:10.37,2015-03-01 23:21:00,
2015-03-01 15:26:00,63.6,44.6,29.92,SE,127,2.3,2.3,50,0.00,CLR,,0.00,WeatherDisplay:10.37,2015-03-01 23:26:00,
2015-03-01 15:31:00,63.6,45.1,29.92,SSE,168,3.5,3.5,51,0.00,CLR,,0.00,WeatherDisplay:10.37,2015-03-01 23:31:00,
2015-03-01 15:36:00,63.9,45.4,29.92,South,170,2.3,2.3,51,0.00,CLR,,0.00,WeatherDisplay:10.37,2015-03-01 23:36:00,
2015-03-01 15:41:00,63.9,45.4,29.92,SE,139,3.5,3.5,51,0.00,CLR,,0.00,WeatherDisplay:10.37,2015-03-01 23:41:00,
2015-03-01 15:46:00,63.8,45.3,29.92,SSE,168,3.5,3.5,51,0.00,CLR,,0.00,WeatherDisplay:10.37,2015-03-01 23:46:00,
2015-03-01 15:51:00,63.4,45.5,29.92,South,180,3.5,3.5,52,0.00,CLR,,0.00,WeatherDisplay:10.37,2015-03-01 23:51:00,
2015-03-01 15:56:00,62.9,46.0,29.92,SW,214,2.3,2.3,54,0.00,CLR,,0.00,WeatherDisplay:10.37,2015-03-01 23:56:00,
2015-03-01 16:01:00,62.3,46.4,29.92,South,175,3.5,3.5,56,0.00,CLR,,0.00,WeatherDisplay:10.37,2015-03-02 00:01:00,
2015-03-01 16:06:00,61.8,46.9,29.92,SSE,157,1.2,1.2,58,0.00,CLR,,0.00,WeatherDisplay:10.37,2015-03-02 00:06:00,
2015-03-01 16:11:00,61.5,46.6,29.92,SSE,158,3.5,3.5,58,0.00,CLR,,0.00,WeatherDisplay:10.37,2015-03-02 00:11:00,
2015-03-01 16:16:00,61.3,46.4,29.92,SSW,207,2.3,2.3,58,0.00,CLR,,0.00,WeatherDisplay:10.37,2015-03-02 00:16:00,
2015-03-01 16:21:00,61.2,47.2,29.92,South,180,1.0,1.0,60,0.00,CLR,,0.00,WeatherDisplay:10.37,2015-03-02 00:21:00,
2015-03-01 16:26:00,60.9,47.4,29.92,SSE,153,1.0,1.0,61,0.00,CLR,,0.00,WeatherDisplay:10.37,2015-03-02 00:26:00,
2015-03-01 16:31:00,60.7,47.6,29.92,SSW,202,2.3,2.3,62,0.00,CLR,,0.00,WeatherDisplay:10.37,2015-03-02 00:31:00,
2015-03-01 16:36:00,60.4,47.7,29.92,NNE,20,3.5,3.5,63,0.00,CLR,,0.00,WeatherDisplay:10.37,2015-03-02 00:36:00,
2015-03-01 16:41:00,60.1,47.9,29.92,North,9,2.3,2.3,64,0.00,CLR,,0.00,WeatherDisplay:10.37,2015-03-02 00:41:00,
2015-03-01 16:46:00,59.8,48.4,29.92,South,180,1.2,1.2,66,0.00,CLR,,0.00,WeatherDisplay:10.37,2015-03-02 00:46:00,
2015-03-01 16:51:00,59.6,48.6,29.91,SSW,193,1.2,0.0,67,0.00,CLR,,0.00,WeatherDisplay:10.37,2015-03-02 00:51:00,
2015-03-01 16:56:00,59.4,48.8,29.92,NNE,12,1.2,1.6,68,0.00,CLR,,0.00,WeatherDisplay:10.37,2015-03-02 00:56:00,
2015-03-01 17:01:00,59.1,48.5,29.92,NNE,27,2.3,2.3,68,0.00,CLR,,0.00,WeatherDisplay:10.37,2015-03-02 01:01:00,
2015-03-01 17:06:00,59.0,49.2,29.92,NNE,22,0.0,0.5,70,0.00,CLR,,0.00,WeatherDisplay:10.37,2015-03-02 01:06:00,
2015-03-01 17:11:00,59.0,49.6,29.92,NNE,22,2.3,2.3,71,0.00,CLR,,0.00,WeatherDisplay:10.37,2015-03-02 01:11:00,
2015-03-01 17:16:00,58.8,50.5,29.92,SSW,193,2.3,2.3,74,0.00,CLR,,0.00,WeatherDisplay:10.37,2015-03-02 01:16:00,
2015-03-01 17:21:00,58.4,50.5,29.92,South,169,2.3,2.3,75,0.00,CLR,,0.00,WeatherDisplay:10.37,2015-03-02 01:21:00,
2015-03-01 17:26:00,58.1,50.9,29.92,SSE,155,2.3,2.3,77,0.00,CLR,,0.00,WeatherDisplay:10.37,2015-03-02 01:26:00,
2015-03-01 17:31:00,57.8,51.0,29.92,South,180,2.3,2.3,78,0.00,CLR,,0.00,WeatherDisplay:10.37,2015-03-02 01:31:00,
2015-03-01 17:36:00,57.7,51.2,29.92,NNE,19,2.3,2.3,79,0.00,CLR,,0.00,WeatherDisplay:10.37,2015-03-02 01:36:00,
2015-03-01 17:41:00,57.5,50.7,29.92,NNE,25,1.2,1.2,78,0.00,CLR,,0.00,WeatherDisplay:10.37,2015-03-02 01:41:00,
2015-03-01 17:46:00,57.3,50.8,29.92,South,180,1.0,1.0,79,0.00,CLR,,0.00,WeatherDisplay:10.37,2015-03-02 01:46:00,
2015-03-01 17:51:00,57.0,50.5,29.92,SSE,164,2.3,2.3,79,0.00,CLR,,0.00,WeatherDisplay:10.37,2015-03-02 01:51:00,
2015-03-01 17:56:00,56.8,50.4,29.92,South,175,2.3,2.3,79,0.00,CLR,,0.00,WeatherDisplay:10.37,2015-03-02 01:56:00,
2015-03-01 18:01:00,56.5,50.4,29.92,SE,133,1.2,1.2,80,0.00,CLR,,0.00,WeatherDisplay:10.37,2015-03-02 02:01:00,
2015-03-01 18:06:00,56.3,50.2,29.93,SE,133,0.0,0.0,80,0.00,CLR,,0.00,WeatherDisplay:10.37,2015-03-02 02:06:00,
2015-03-01 18:11:00,56.1,50.0,29.92,SSE,160,1.2,0.0,80,0.00,CLR,,0.00,WeatherDisplay:10.37,2015-03-02 02:11:00,
2015-03-01 18:16:00,55.8,50.1,29.93,ENE,68,3.5,3.5,81,0.00,CLR,,0.00,WeatherDisplay:10.37,2015-03-02 02:16:00,
2015-03-01 18:21:00,55.7,50.0,29.93,ENE,68,0.0,0.0,81,0.00,CLR,,0.00,WeatherDisplay:10.37,2015-03-02 02:21:00,
2015-03-01 18:26:00,55.5,49.8,29.93,ENE,68,1.2,1.2,81,0.00,CLR,,0.00,WeatherDisplay:10.37,2015-03-02 02:26:00,
2015-03-01 18:31:00,55.4,49.7,29.93,ENE,69,0.0,0.1,81,0.00,CLR,,0.00,WeatherDisplay:10.37,2015-03-02 02:31:00,
2015-03-01 18:36:00,55.3,49.9,29.93,ENE,70,0.0,0.0,82,0.00,CLR,,0.00,WeatherDisplay:10.37,2015-03-02 02:36:00,
2015-03-01 18:41:00,55.2,49.8,29.93,ENE,70,1.2,1.2,82,0.00,CLR,,0.00,WeatherDisplay:10.37,2015-03-02 02:41:00,
2015-03-01 18:46:00,55.1,49.7,29.93,ENE,70,0.0,0.0,82,0.00,CLR,,0.00,WeatherDisplay:10.37,2015-03-02 02:46:00,
2015-03-01 18:51:00,55.0,49.6,29.93,ENE,70,0.0,0.0,82,0.00,CLR,,0.00,WeatherDisplay:10.37,2015-03-02 02:51:00,
2015-03-01 18:56:00,54.9,49.5,29.93,ENE,69,0.0,0.0,82,0.00,CLR,,0.00,WeatherDisplay:10.37,2015-03-02 02:56:00,
2015-03-01 19:01:00,54.9,49.5,29.93,ENE,70,0.0,0.0,82,0.00,CLR,,0.00,WeatherDisplay:10.37,2015-03-02 03:01:00,
2015-03-01 19:06:00,54.8,49.4,29.93,ENE,70,0.0,0.0,82,0.00,CLR,,0.00,WeatherDisplay:10.37,2015-03-02 03:06:00,
2015-03-01 19:11:00,54.9,48.2,29.93,ENE,57,2.0,2.0,78,0.00,CLR,,0.00,WeatherDisplay:10.37,2015-03-02 03:11:00,
2015-03-01 19:16:00,55.1,47.0,29.93,NE,49,2.3,2.3,74,0.00,CLR,,0.00,WeatherDisplay:10.37,2015-03-02 03:16:00,
2015-03-01 19:21:00,55.4,46.2,29.93,NE,49,1.2,1.2,71,0.00,CLR,,0.00,WeatherDisplay:10.37,2015-03-02 03:21:00,
2015-03-01 19:26:00,55.6,45.6,29.93,NE,49,1.2,1.2,69,0.00,CLR,,0.00,WeatherDisplay:10.37,2015-03-02 03:26:00,
2015-03-01 19:31:00,55.7,46.4,29.93,NE,49,0.0,0.0,71,0.00,CLR,,0.00,WeatherDisplay:10.37,2015-03-02 03:31:00,